Weather Roundup
Issued by NWS Chicago, IL

Home | Current Version | Previous Version | Graphics & Text | Print | Product List | Glossary On
Versions: 1 2 3 4 5 6 7 8 9 10 11 12 13 14 15 16 17 18 19 20 21 22 23 24 25 26 27 28 29 30 31 32 33 34 35 36 37 38 39 40 41 42 43 44 45 46 47 48 49 50
000
NZUS59 KLOT 281206
HRRLOT

CHICAGO AREA WEATHER ROUNDUP
NATIONAL WEATHER SERVICE CHICAGO/ROMEOVILLE IL
600 AM CST WED JAN 28 2015

NOTE: "FAIR" INDICATES FEW OR NO CLOUDS BELOW 12,000 FEET WITH NO
SIGNIFICANT WEATHER AND/OR OBSTRUCTIONS TO VISIBILITY.

* THESE STATIONS ARE NOT UNDER NWS QUALITY CONTROL. THEY ALSO MAY NOT
  REPORT WEATHER SUCH AS PRECIPITATION OR FOG.

ILZ005-006-012>014-019>023-281300-
NORTHEAST ILLINOIS

CITY           SKY/WX    TMP DP  RH WIND       PRES   REMARKS
OHARE          PTCLDY    20  16  84 S5        30.27R WCI  13
6HR MIN TEMP:  20; 6HR MAX TEMP:  24;

MIDWAY         CLEAR     24  17  74 S5        30.29R WCI  18
6HR MIN TEMP:  24; 6HR MAX TEMP:  27;

AURORA         PTCLDY    20  15  81 SE5       30.26S WCI  13
6HR MIN TEMP:  17; 6HR MAX TEMP:  23;

LANSING*       PTCLDY    17  14  86 CALM      30.28S
JOLIET*        CLEAR     21  17  84 SE3       30.27F
WAUKEGAN       PTCLDY    17  14  88 CALM      30.26R
6HR MIN TEMP:  16; 6HR MAX TEMP:  22;

DUPAGE AIRPORT PTCLDY    17  14  88 SE5       30.26R WCI  10
6HR MIN TEMP:  17; 6HR MAX TEMP:  23;

WHEELING       CLEAR     19  16  88 S3        30.29R
6HR MIN TEMP:  19; 6HR MAX TEMP:  23;

KANKAKEE*      CLEAR     20  17  87 SE3       30.29R
MORRIS*        PTCLDY    20  18  90 SE6       30.27S WCI  13
LEWIS AIRPORT* CLEAR     20  17  86 SE7       30.27R WCI  11
NORTHERLY IS     N/A     24  14  65 S6          N/A  WCI  17
$$

WIZ051-052-058>065-066-070>072-281300-
SOUTHEAST WISCONSIN

CITY           SKY/WX    TMP DP  RH WIND       PRES   REMARKS
MILWAUKEE      PTCLDY    23  16  74 SW3       30.26R
6HR MIN TEMP:  20; 6HR MAX TEMP:  28;

KENOSHA*       MOCLDY    18  15  88 CALM      30.26R
RACINE*        PTCLDY    19  15  84 SW3       30.28R
BURLINGTON     MOCLDY    14  13  95 CALM      30.25S
$$

INZ001>003-010>013-019-020-281300-
NORTHWEST INDIANA

CITY           SKY/WX    TMP DP  RH WIND       PRES   REMARKS
GARY*          PTCLDY    21  12  68 SE8       30.29F WCI  12
MICHIGAN CITY* NOT AVBL
RENSSELAER*    NOT AVBL
VALPARAISO     PTCLDY    17  12  80 SE7       30.29S WCI   8
$$

LMZ740>746-281300-
SOUTHERN LAKE MICHIGAN

STATION/POSITION TIME  SKY/WX   TEMP WIND        PRES    VSBY
                                AIR  DIR/SP/G
                 (UTC)          (F)  (DEG/KT/KT) (MB)    (MI)
HARRISON CRIB    1200            26  170/ 13/ 15   N/A
BURNHAM HARBOR   1200            25  190/  6/  9   N/A
CALUMET HARBOR   1200            23  170/  6/  8   N/A
BURNS HARBOR     NOT AVBL
MICHIGAN CITY    1200            21  130/  7/  9   N/A
$$

ABBREVIATIONS USED IN REMARKS
   TC - TEMPERATURE IN CELSIUS
  WCI - WIND CHILL INDEX
   HX - HEAT INDEX
  VSB - VISIBILITY
$$



USA.gov is the U.S. government's official web portal to all federal, state and local government web resources and services.